GFSGL_850_spd_159.txt.gz
Wind_Speed
30 31 30 32 30 26 27 35 27 29 29 29 35 37 34 34 32 31 32 33 32 35 37 39 42 41 39 39 41 41 40 39 41 44 40 36 35 33 32 30 28 29 31
28 25 24 23 29 31 34 31 36 30 34 31 35 38 40 34 32 30 31 36 37 38 39 40 41 41 42 42 41 41 39 38 38 41 38 36 35 31 29 29 28 28 29
18 14 18 20 28 34 31 22 25 34 34 32 27 29 28 29 31 32 36 37 39 39 37 37 40 40 42 42 40 41 39 38 35 35 38 33 33 32 32 31 29 29 29
10 3 8 15 15 16 25 27 26 21 27 26 26 28 29 31 34 35 35 35 33 33 35 38 40 41 41 39 38 38 38 37 34 35 37 35 33 32 30 30 30 28 29
2 2 3 5 4 9 11 12 14 17 26 29 27 31 32 31 30 30 29 29 31 34 34 35 38 38 38 38 38 38 37 34 33 34 35 37 35 33 32 30 31 30 32
7 7 7 8 10 12 14 15 17 20 23 27 28 28 26 27 24 23 25 28 30 33 38 40 39 36 36 35 34 34 32 32 33 33 33 34 32 29 26 27 30 31 36
9 9 8 9 12 15 19 21 23 25 26 24 22 22 24 24 23 23 26 29 31 34 39 39 36 31 30 29 27 27 27 25 24 24 26 27 28 27 30 34 37 36 38
6 6 9 13 17 21 23 23 22 21 20 21 20 19 22 22 22 25 28 29 33 35 35 33 30 27 24 21 21 22 21 19 16 18 22 27 30 30 29 32 36 40 43
9 11 14 16 16 17 18 17 16 17 17 19 21 20 21 21 23 24 28 31 32 32 29 28 24 22 20 16 23 25 24 23 22 23 25 25 25 27 30 34 39 42 42
7 10 12 14 15 15 14 14 16 18 18 16 15 17 19 19 21 24 26 29 26 26 23 23 15 14 17 24 26 25 24 23 23 20 20 26 28 31 28 38 40 42 40
8 10 10 11 10 10 10 10 11 11 11 13 14 15 15 18 18 17 19 22 25 23 22 19 18 15 18 22 19 16 14 18 19 21 26 31 34 41 40 45 44 46 44
7 7 6 6 7 6 5 6 8 10 11 10 11 14 17 16 18 18 20 18 21 19 18 19 18 17 18 16 10 11 15 21 18 25 31 33 39 39 47 47 42 39 42
8 4 3 3 2 1 3 8 10 10 13 11 14 20 22 20 20 21 20 20 20 16 17 23 16 11 9 8 9 17 19 19 22 28 27 30 44 47 49 51 32 19 29
4 2 4 3 0 3 4 6 9 11 12 16 20 20 23 22 21 20 23 22 18 14 13 18 15 6 3 7 13 14 16 18 22 24 29 28 45 52 47 47 28 16 15
5 5 5 3 6 10 12 12 12 14 15 17 17 20 21 20 21 22 22 20 17 13 14 14 17 17 13 14 15 16 18 17 21 23 28 27 42 49 51 50 31 15 14
11 8 5 5 6 10 13 10 13 10 11 15 17 18 18 18 18 17 16 16 14 9 12 14 12 16 15 16 17 18 19 21 22 25 27 25 39 42 51 56 43 19 12
11 12 11 13 14 14 10 10 12 11 12 13 15 16 17 16 17 15 12 10 11 12 16 18 18 16 18 18 18 19 21 22 24 29 32 30 28 40 48 45 51 36 18
4 6 8 10 12 15 14 13 14 16 18 18 16 17 18 17 16 14 11 9 12 16 20 19 19 21 21 22 21 21 20 22 24 28 31 34 32 32 40 46 54 48 37
1 2 3 5 10 12 15 14 14 16 19 20 18 16 17 17 14 10 10 12 15 16 19 19 22 24 24 23 22 22 23 23 25 27 30 33 35 32 31 34 43 47 46
2 2 4 2 5 7 10 12 13 16 20 22 21 20 19 19 17 16 15 15 15 15 16 21 24 26 26 25 23 23 23 23 24 25 27 29 32 34 30 28 30 37 43
2 2 6 3 3 5 8 9 11 14 18 19 19 19 18 19 18 17 17 19 20 19 20 22 24 26 27 26 25 24 24 23 24 25 24 25 28 29 31 25 22 24 28
3 4 8 3 4 6 8 7 8 11 13 15 15 17 19 17 18 17 16 16 17 18 21 24 25 25 26 25 26 25 25 25 25 26 26 24 23 23 25 27 26 20 22
4 7 9 4 5 8 8 5 7 9 8 11 15 18 19 19 18 15 14 14 16 19 20 21 20 20 21 22 23 25 26 26 26 27 27 26 22 21 22 23 24 27 25
5 8 9 4 7 10 7 6 6 5 5 11 15 17 18 17 16 15 15 15 16 17 18 21 22 22 22 22 22 24 25 26 25 24 24 23 23 21 20 20 19 19 22
6 8 8 6 8 7 5 4 6 6 7 11 14 13 13 14 16 18 18 18 18 20 21 22 23 24 25 24 24 23 23 23 24 22 20 21 21 20 20 18 18 17 16
7 9 7 6 7 5 4 4 6 7 7 10 10 12 14 15 16 18 19 20 20 21 22 23 24 24 24 25 26 25 23 23 23 22 19 20 21 22 21 21 20 17 16

GFSGL_850_spd_165.txt.gz
Wind_Speed
27 26 25 24 23 23 25 27 27 27 25 26 28 30 32 31 27 26 24 22 22 24 25 27 28 29 25 24 22 23 26 28 36 35 29 27 29 31 28 26 24 26 27
28 28 26 24 24 22 23 25 26 27 26 28 32 35 33 24 18 19 21 24 26 27 29 29 29 25 25 22 21 24 27 29 31 39 33 32 31 31 30 29 27 24 25
22 21 21 21 20 20 20 23 25 25 28 30 30 21 16 17 20 23 26 28 28 27 26 25 24 23 23 23 25 26 27 28 29 35 36 36 33 27 30 31 29 27 25
15 14 14 16 16 18 20 19 20 20 16 14 15 16 18 21 23 25 26 25 23 22 23 25 26 27 28 31 28 26 28 29 30 31 33 33 32 29 33 33 31 22 21
11 11 11 14 15 14 13 12 11 12 15 17 19 21 22 22 16 22 23 22 23 24 26 28 30 32 33 30 29 27 26 27 29 30 29 32 35 31 31 27 27 24 22
12 12 11 8 5 5 7 11 14 17 19 21 21 21 20 15 20 21 21 23 26 28 30 30 32 29 25 26 25 25 24 23 26 28 33 33 32 27 23 24 27 28 24
11 9 7 4 5 9 12 15 18 19 18 18 18 18 18 19 21 23 25 27 29 28 29 29 28 25 25 25 25 23 26 25 27 29 28 27 27 24 22 22 24 27 29
11 8 4 5 9 13 16 17 18 18 18 18 18 18 18 21 24 27 29 31 30 28 28 31 32 31 25 28 28 29 24 27 27 20 18 23 21 20 21 25 27 33 33
8 6 6 9 13 15 17 18 18 18 18 19 20 21 21 24 27 30 32 33 30 27 27 30 30 26 26 27 30 29 28 22 19 19 20 21 20 23 22 26 35 30 36
6 6 9 13 16 17 17 17 17 18 18 19 20 22 22 23 25 28 29 28 27 26 26 28 22 23 28 30 31 22 17 16 20 19 21 24 21 17 15 25 30 39 47
5 9 13 15 16 15 15 15 15 16 18 20 19 19 21 22 26 26 26 23 24 25 25 25 22 24 26 27 14 6 13 18 23 24 24 23 24 19 19 35 42 44 40
9 12 13 13 11 11 10 11 13 15 15 17 19 19 19 23 22 21 22 21 20 23 24 23 20 28 22 19 14 18 16 20 19 19 21 23 27 26 25 43 43 41 39
9 9 8 6 6 6 7 9 12 15 16 15 16 17 19 21 22 23 22 23 21 23 24 24 24 21 18 14 11 13 17 14 17 19 24 26 30 26 27 43 48 50 42
3 3 2 3 5 7 8 10 10 11 12 12 15 18 20 21 24 26 26 25 26 26 25 25 23 19 14 11 13 13 16 16 18 21 24 26 28 29 25 39 50 54 43
0 1 2 2 4 6 7 9 11 12 14 16 18 20 22 22 23 24 24 24 24 24 23 22 19 19 17 15 12 13 16 19 21 22 25 28 29 34 30 35 46 56 43
5 6 3 3 4 6 6 8 10 13 15 17 18 19 19 20 20 20 19 17 21 21 21 23 23 26 26 25 23 23 23 23 24 24 25 27 30 32 35 31 41 48 47
8 7 5 4 6 7 8 7 8 12 15 17 19 18 18 18 18 19 18 16 16 17 20 21 24 21 24 23 24 24 24 24 25 25 26 26 27 29 34 31 36 44 49
6 5 4 4 4 5 7 8 9 11 11 14 18 17 17 17 16 16 16 16 15 19 23 24 23 21 20 23 23 23 24 24 25 26 26 26 26 28 31 35 33 37 44
6 6 3 0 1 3 5 8 10 11 13 14 12 14 16 15 15 16 15 15 18 20 22 23 23 24 23 23 24 25 25 25 26 25 26 26 27 28 30 33 34 31 39
9 7 3 3 4 3 5 5 6 9 11 11 13 15 18 15 13 15 17 17 18 20 21 23 23 22 22 24 26 26 26 27 27 27 27 27 27 27 27 31 33 31 30
10 6 3 4 5 5 5 5 5 8 8 9 11 15 17 13 12 13 15 17 19 20 21 22 24 26 26 26 26 26 27 27 27 27 27 28 28 28 27 25 27 29 31
9 6 4 4 5 6 6 5 4 4 6 7 9 11 12 11 12 13 15 17 19 20 22 23 24 25 26 26 26 25 26 26 27 27 27 27 28 27 26 24 25 25 27
10 6 4 3 4 6 7 4 2 2 3 6 8 7 8 10 11 13 15 17 19 20 21 22 24 25 25 25 24 25 25 26 26 26 26 26 25 26 24 24 24 25 25
8 5 3 3 4 4 3 2 1 1 1 4 5 6 7 9 11 13 15 17 18 19 22 24 24 25 25 26 26 24 24 25 24 24 23 24 22 23 22 23 24 24 23
7 5 3 4 3 4 3 3 2 2 2 1 3 5 7 8 10 12 13 15 17 19 20 22 24 25 25 25 24 21 20 20 21 22 22 20 20 22 22 22 23 22 23
6 5 5 5 5 4 3 4 3 3 2 3 4 3 5 7 9 11 13 15 17 19 21 23 24 25 26 26 25 22 19 17 17 18 19 18 19 21 21 22 23 22 21

GFSGL_850_spd_168.txt.gz
Wind_Speed
20 19 20 18 18 17 15 13 16 13 15 17 18 20 17 15 14 15 15 14 15 17 18 17 19 19 19 19 20 21 22 25 32 32 27 26 28 28 28 31 28 28 27
16 19 17 14 12 14 15 16 14 15 15 16 18 15 13 12 10 13 15 14 16 17 18 18 18 18 19 19 21 22 25 25 28 33 29 27 28 25 28 28 26 27 27
14 13 9 9 12 11 10 12 12 13 12 7 7 7 8 10 12 13 14 15 16 16 16 17 18 19 19 21 22 24 24 24 25 28 30 25 24 25 27 27 30 27 26
8 7 7 5 5 4 7 8 9 9 7 8 11 12 10 12 12 11 14 15 16 16 17 18 19 19 20 22 22 21 20 22 24 22 25 25 26 25 22 22 23 22 25
8 7 6 5 3 3 5 5 6 8 11 14 13 10 10 10 13 18 15 14 17 17 19 18 18 19 20 22 24 23 23 22 21 22 27 25 25 25 24 22 23 23 22
11 9 6 4 2 2 3 6 10 13 14 12 10 10 10 11 15 17 19 20 16 18 18 17 16 18 16 21 21 24 24 22 20 22 27 27 26 23 23 22 22 21 23
10 8 7 5 2 3 7 10 11 11 10 9 9 9 11 14 17 18 21 19 15 16 16 16 17 17 22 21 25 26 24 19 20 21 20 19 21 23 23 24 22 22 24
11 9 7 3 2 7 9 10 10 8 8 9 8 9 9 16 20 22 24 16 14 16 15 16 19 22 20 24 27 28 26 19 17 14 18 22 23 26 25 24 26 25 28
11 7 3 2 5 6 7 9 10 9 7 8 10 11 12 14 23 26 26 17 16 17 17 18 22 21 23 24 32 31 25 13 10 15 17 21 24 18 19 19 20 28 39
8 4 2 5 7 8 8 9 8 6 7 8 9 10 13 12 20 22 24 20 22 21 17 20 23 24 27 28 28 25 20 13 17 16 19 19 18 19 19 20 22 35 44
4 1 3 8 9 7 7 6 6 7 8 9 11 11 11 16 18 20 21 22 22 21 20 24 26 25 27 25 21 18 18 20 21 18 16 17 16 17 20 20 24 37 45
5 2 5 6 3 3 5 7 9 9 9 10 11 11 11 13 19 22 21 21 21 20 20 24 26 26 24 21 18 15 15 18 17 16 17 17 20 24 22 24 25 35 47
3 2 3 2 2 4 6 8 7 9 9 9 11 11 12 12 13 21 23 22 22 20 20 23 24 25 23 18 13 14 15 17 19 17 18 20 22 24 26 28 31 41 51
5 4 3 3 4 4 6 7 7 8 8 9 10 11 12 12 14 19 21 21 19 19 20 17 20 21 19 21 13 12 15 17 18 18 21 21 22 23 24 26 34 46 55
5 5 7 7 5 5 4 4 4 7 9 9 10 10 10 12 18 19 19 19 21 23 20 19 23 20 23 23 21 21 22 18 18 19 20 22 22 23 24 27 33 43 49
10 12 10 6 5 4 3 2 5 7 10 12 14 14 10 15 16 15 17 17 18 18 16 20 23 19 21 20 20 22 19 20 20 21 20 21 23 23 25 28 31 38 45
13 10 9 10 3 3 3 2 3 10 15 17 16 16 15 15 16 16 15 16 19 17 17 18 20 21 22 21 19 19 20 21 22 21 21 22 23 23 25 30 39 39 43
12 11 9 11 5 3 3 1 2 5 5 8 13 17 18 15 16 17 16 17 15 17 16 17 19 20 18 19 19 20 21 21 22 22 22 22 23 25 26 29 36 44 41
14 12 9 8 6 5 2 1 2 4 5 7 7 11 17 14 19 20 19 13 15 15 17 17 17 17 18 18 19 19 20 22 23 22 22 23 24 25 27 28 34 39 41
12 14 11 7 4 4 3 1 2 3 5 6 7 8 12 12 9 10 12 13 13 14 15 16 17 18 18 19 20 20 20 22 23 22 23 22 23 25 27 28 29 34 40
10 10 10 7 6 5 4 3 2 1 3 5 6 10 12 11 10 10 11 12 13 13 14 15 16 17 18 19 20 20 20 21 23 24 23 23 24 27 26 26 27 29 34
10 7 6 7 7 7 5 4 3 2 2 2 4 7 10 8 8 9 10 11 12 13 14 15 16 18 19 19 20 20 20 22 23 24 24 22 25 27 26 26 26 27 27
10 9 8 7 7 9 5 4 4 3 2 0 2 3 4 5 6 7 9 10 11 13 14 15 16 18 18 18 19 19 19 23 24 23 23 21 25 26 25 26 25 25 25
9 7 7 6 6 5 6 6 5 8 5 2 2 3 2 3 4 7 8 9 10 12 13 14 16 18 19 19 19 18 19 21 21 23 20 20 22 24 23 24 24 24 24
9 8 7 7 6 6 6 5 6 5 5 4 4 4 2 3 4 6 7 8 10 11 13 14 16 17 19 20 20 18 18 17 17 18 21 20 19 22 21 22 24 22 23
8 7 7 7 7 7 7 7 6 6 5 5 4 3 1 1 3 5 6 8 9 10 13 13 16 17 21 20 21 18 18 16 16 16 21 17 18 19 20 20 22 22 22

GFSGL_850_spd_171.txt.gz
Wind_Speed
18 18 17 14 14 13 12 13 13 17 18 17 15 12 14 17 17 13 13 16 18 20 20 20 22 23 22 21 22 23 25 24 30 32 29 28 30 33 35 35 34 32 30
16 15 15 13 13 11 13 13 18 17 11 7 9 11 10 9 13 15 15 17 18 19 21 21 21 21 24 23 22 24 26 26 29 32 29 28 30 30 31 30 29 27 28
16 14 12 10 10 10 12 11 5 2 3 3 4 6 8 9 11 13 12 14 17 19 20 20 23 24 24 24 23 23 24 26 24 26 29 26 27 24 26 27 26 22 24
14 13 11 10 12 12 8 5 4 3 2 2 5 6 9 10 11 12 15 16 16 18 20 21 23 23 24 23 23 23 26 27 28 29 27 28 25 22 24 23 24 22 24
15 15 16 14 12 7 7 6 4 1 4 6 6 6 7 10 14 17 19 20 20 17 19 19 21 25 22 25 21 27 30 30 29 25 26 23 23 24 21 23 26 26 28
18 16 16 13 11 8 5 2 3 5 6 6 6 7 8 13 18 19 19 20 14 15 18 21 21 17 20 26 30 27 27 27 26 25 25 28 23 20 26 27 27 27 27
20 17 14 11 9 6 2 1 3 5 5 5 5 4 10 13 16 18 18 16 14 16 20 21 22 21 26 22 23 22 22 24 24 28 24 23 25 26 26 30 29 26 26
20 17 14 11 7 3 3 4 5 4 4 4 6 10 8 15 16 18 17 14 13 15 16 22 23 23 21 24 28 23 23 22 11 13 17 21 22 24 28 25 27 26 24
20 18 15 9 4 2 2 4 6 3 3 3 5 11 12 15 18 19 20 13 14 16 14 19 22 23 25 28 27 24 19 18 17 13 14 18 21 18 19 23 25 26 26
21 16 10 5 2 1 1 3 3 3 3 3 5 6 10 14 19 19 22 14 16 17 15 16 22 27 28 26 26 25 22 23 21 17 14 15 18 18 18 21 25 26 29
19 14 10 5 3 0 2 3 2 1 3 4 5 4 5 12 20 22 23 21 19 15 18 16 17 24 27 27 24 22 20 22 21 20 22 21 23 19 22 20 25 31 33
17 12 10 9 4 4 1 3 3 6 4 5 7 5 7 13 15 23 19 20 17 15 17 16 23 26 27 25 25 17 18 18 20 22 19 22 21 24 23 27 32 32 36
17 12 7 4 4 2 4 8 4 6 4 4 5 6 7 8 11 19 18 16 17 18 19 21 27 21 22 21 17 15 18 21 21 21 20 22 28 24 25 26 29 28 39
14 10 7 7 9 10 7 5 6 5 5 6 6 7 7 8 13 18 15 18 18 15 17 15 25 22 23 21 23 21 23 20 20 20 22 24 26 24 22 27 34 41 45
13 9 9 10 9 10 10 9 4 6 6 6 5 6 5 7 15 15 16 17 19 20 17 16 17 22 22 22 24 19 20 23 23 22 25 25 24 27 24 29 33 46 47
12 14 13 11 10 6 6 7 6 8 9 7 10 9 6 10 13 15 16 15 21 19 18 17 16 19 21 21 21 21 20 22 23 24 23 25 24 26 29 30 32 45 44
16 16 12 11 9 10 8 2 3 8 11 12 14 15 14 10 12 13 13 18 23 19 15 17 17 17 18 19 20 20 21 22 24 23 24 24 27 25 28 31 33 39 47
14 16 11 9 7 6 6 4 4 2 6 9 10 16 18 13 14 16 15 17 12 13 13 15 17 17 18 19 20 20 21 23 23 23 24 24 24 28 31 32 33 37 44
14 11 9 7 7 7 5 4 3 3 2 1 2 8 11 11 15 14 15 11 12 13 13 14 15 17 18 19 19 20 22 23 24 24 22 23 23 27 31 31 33 34 38
13 16 13 8 5 5 5 4 2 1 1 0 1 2 4 7 5 6 8 10 10 11 13 14 15 16 17 19 20 21 21 23 24 23 23 23 23 28 30 30 32 32 31
8 10 10 9 6 5 5 4 3 3 2 1 1 4 5 9 4 5 7 8 10 11 13 14 15 16 17 18 20 20 20 21 22 23 22 22 25 29 29 30 29 30 30
10 7 7 6 7 7 6 4 3 4 3 2 1 5 9 7 3 4 6 8 9 10 11 13 14 16 17 18 19 20 20 21 23 22 24 20 25 26 27 28 29 29 29
11 10 8 7 7 9 5 5 5 5 5 3 2 2 2 1 2 4 6 7 9 10 11 12 14 16 17 17 17 17 19 22 23 22 23 20 24 27 25 26 26 27 27
11 9 9 8 7 5 5 6 7 9 6 4 3 3 2 2 1 4 5 5 7 9 10 11 14 16 18 17 18 17 18 18 19 20 21 23 22 24 23 24 24 24 24
9 10 8 8 6 6 7 8 7 6 6 6 5 4 2 1 1 2 4 5 7 8 10 11 12 14 18 18 19 17 16 15 16 18 21 22 20 20 20 21 23 22 23
13 10 9 7 7 8 8 7 8 8 7 6 6 5 4 2 1 1 2 4 5 6 8 9 12 14 18 18 19 18 17 16 15 17 20 19 19 17 21 20 21 21 21